{"data":{"norad_id":64822,"epoch":"2026-05-25T05:07:38.874432Z","epoch_age_seconds":46648,"freshness":"FRESH","line1":"1 64822U 25151G   26145.21364438  .00024053  00000+0  52841-3 0  9991","line2":"2 64822  51.8678 208.6905 0003205 194.8601 165.2295 15.43887504 48218","mean_motion":15.43887504,"eccentricity":0.0003205,"inclination_deg":51.8678,"raan_deg":208.6905,"arg_perigee_deg":194.8601,"mean_anomaly_deg":165.2295,"bstar":0.00052841,"rev_number":4821,"period_min":93.271044442627,"perigee_km":432.46538631353,"apogee_km":436.83238206529,"semimajor_km":6812.7858841894,"source":"CELESTRAK","updated_at":"2026-05-25T13:38:04.822991Z"}}